Regional Weather Roundup
Issued by NWS

Home | Current Version | Previous Version | Graphics & Text | Print | Product List | Glossary On
Versions: 1 2 3 4 5 6 7 8 9 10 11 12 13 14 15 16 17 18 19 20 21 22 23 24 25 26 27 28 29 30 31 32 33 34 35 36 37 38 39 40 41 42 43 44 45 46 47 48 49 50
738
ASUS45 KBOU 261007
RWRCO

WEATHER ROUNDUP FOR COLORADO
NATIONAL WEATHER SERVICE DENVER/BOULDER CO
400 AM MDT WED JUL 26 2017

NOTE: "FAIR" INDICATES FEW OR NO CLOUDS BELOW 12000 FEET WITH NO
SIGNIFICANT WEATHER AND/OR OBSTRUCTIONS TO VISIBILITY.

COZ001>005-013-030-031-261100-
...NORTHWEST COLORADO...

CITY           SKY/WX    TMP DP  RH WIND       PRES   REMARKS
CRAIG          CLOUDY    62  59  90 CALM      30.27R
HAYDEN         CLOUDY    57  54  88 S3        30.29S
MEEKER         MOCLDY    61  59  93 CALM      30.28R
RABBIT EARS PA FOG       50  50 100 W7        30.53S VSB 1/4
STEAMBOAT SPGS CLOUDY    58  58  99 E3        30.31R
WALDEN         NOT AVBL
$$

COZ006>008-011-261100-
...WEST CENTRAL VALLEYS...

CITY           SKY/WX    TMP DP  RH WIND       PRES   REMARKS
GRAND JUNCTION MOCLDY    67  67 100 CALM      30.18R
MONTROSE       CLOUDY    64  61  90 S6        30.26R
EAGLE          CLOUDY    60  57  89 E3        30.31R
RIFLE          LGT RAIN  64  62  93 W3        30.23R
DELTA          NOT AVBL
NUCLA          NOT AVBL
$$

COZ017>023-064>068-261100-
...SOUTHWEST COLORADO...

CITY           SKY/WX    TMP DP  RH WIND       PRES   REMARKS
DURANGO        FAIR      59  55  87 N3        30.32R
CORTEZ         FAIR      57  56  96 E3        30.27R
PAGOSA SPRINGS MOCLDY    59  58  96 CALM      30.39S
TELLURIDE      CLOUDY    56  52  86 SE3       30.49S
WOLF CREEK PAS FOG       45  45 100 SW6       30.72R VSB<1/4
$$

COZ009-010-012-014-032>034-037-058>063-261100-
...CENTRAL COLORADO...

CITY           SKY/WX    TMP DP  RH WIND       PRES   REMARKS
ASPEN          CLOUDY    56  55  97 S3        30.36R
BUENA VISTA    FAIR      56  52  84 N3        30.38S
COPPER MTN     CLOUDY    54  45  71 CALM      30.65F
BERTHOUD PASS  CLOUDY    43  30  61 W17G24    30.67F
COTTONWOOD PAS CLOUDY    59  46  63 CALM      30.50S
GUNNISON       FAIR      56  53  90 W7        30.40R
KREMMLING      MOCLDY    63  55  77 CALM      30.35R
LEADVILLE      MOCLDY    47  45  93 CALM      30.50R
MONARCH PASS   MOCLDY    45  45 100 W20G25    30.75S
SALIDA         FAIR      58  57  94 W3        30.42S
SUNLIGHT       CLOUDY    48  46  93 SW7       30.59R
WILKERSON PASS MOCLDY    50  43  76 W7        30.62S
$$

COZ069>075-261100-
...SAN LUIS VALLEY/SANGRE DE CRISTO MOUNTAINS...

CITY           SKY/WX    TMP DP  RH WIND       PRES   REMARKS
ALAMOSA        FAIR      54  53  97 CALM      30.37R
DEL NORTE      FAIR      56  54  91 W5        30.40S
LA VETA PASS   NOT AVBL
SAGUACHE         N/A    N/A N/A N/A MISG        N/A
$$

COZ035-036-038>040-261100-
...NORTHERN COLORADO FRONT RANGE...

CITY           SKY/WX    TMP DP  RH WIND       PRES   REMARKS
DENVER INTL AP FAIR      66  57  72 NW8       30.21R
DMNS CITY PARK   N/A     64  59  82 NE5G10    30.21R
AURORA         NOT AVBL
FRONT RANGE AP FAIR      63  57  82 N10       30.22R
ERIE MUNI ARPT MOCLDY    64  61  91 CALM      30.20R
BOULDER MUN AP CLOUDY    66  55  68 CALM      30.20R
CENTENNIAL     FAIR      63  60  90 W5        30.23R
BROOMFIELD     FAIR      64  57  77 N6        30.23R
FORT COLLINS   FAIR      66  58  75 N8        30.19R
LONGMONT       MOCLDY    66  59  79 CALM      30.21R
$$

COZ041-046-047-076>085-087-088-261100-
...PIKES PEAK/PALMER DIVIDE AND SOUTHERN FOOTHILLS...

CITY           SKY/WX    TMP DP  RH WIND       PRES   REMARKS
COLO. SPRINGS  MOCLDY    67  57  70 N8        30.23R
A. F. ACADEMY  NOT AVBL
SCHRIEVER AFB  NOT AVBL
CHEYENNE MTN   NOT AVBL
ELLICOTT       FAIR       1  32 100 N9        30.22R WCI -14
FALCON           N/A     62  54  75 N8G17     30.29R
FORT CARSON    NOT AVBL
LIMON          FAIR      62  59  90 NW12      30.18R
MONUMENT HILL  FAIR      55  54  94 NW6       30.32S
CANON CITY     CLEAR     70  61  73 W7        30.18R
WALSENBURG     FAIR      68  57  68 SW8       30.23R
TRINIDAD       FAIR      63  57  81 NW7       30.21R
$$

COZ042>045-048>051-090-091-261100-
...NORTHEAST COLORADO...

CITY           SKY/WX    TMP DP  RH WIND       PRES   REMARKS
GREELEY ARPT   FAIR      65  58  78 W8        30.17R
AKRON          FAIR      67  59  75 N13       30.10R
BURLINGTON     FAIR      70  61  73 NW10      30.04R
WRAY           NOT AVBL
YUMA           FAIR      66  54  63 N15       30.04S
STERLING       FAIR      70  63  78 N10G16    30.07R
HOLYOKE        CLOUDY    72  66  83 N13G18    30.03R
FORT MORGAN    FAIR      68  57  67 N15       30.12R
$$

COZ086-089-092>099-261100-
...SOUTHEAST COLORADO...

CITY           SKY/WX    TMP DP  RH WIND       PRES   REMARKS
PUEBLO         FAIR      67  63  87 W3        30.13R
LA JUNTA       FAIR      71  60  68 W10       30.08R
LAMAR          FAIR      69  63  81 W7        30.01R
SPRINGFIELD      N/A     69  59  70 W7        30.07R
$$




USA.gov is the U.S. government's official web portal to all federal, state and local government web resources and services.